{"data":{"norad_id":43790,"epoch":"2026-05-25T02:25:56.067168Z","epoch_age_seconds":63307,"freshness":"FRESH","line1":"1 43790U 18099AJ  26145.10134337  .00003557  00000+0  20632-3 0  9995","line2":"2 43790  97.4250 195.3831 0012686  69.7087 290.5507 15.12730541408843","mean_motion":15.12730541,"eccentricity":0.0012686,"inclination_deg":97.425,"raan_deg":195.3831,"arg_perigee_deg":69.7087,"mean_anomaly_deg":290.5507,"bstar":0.00020632,"rev_number":40884,"period_min":95.192102028169,"perigee_km":519.11608624737,"apogee_km":536.63802510944,"semimajor_km":6906.0140556784,"source":"CELESTRAK","updated_at":"2026-05-25T13:37:55.896853Z"}}